Tracking 23940 objects as of 2-Dec-2021
HD Live streaming from Space Station
objects crossing your sky now

STARLINK-3122

Track STARLINK-3122 now!
10-day predictions
STARLINK-3122 is classified as:


NORAD ID: 49445
Int'l Code: 2021-104AP
Perigee: 355.7 km
Apogee: 357.8 km
Inclination: 53.2 °
Period: 91.5 minutes
Semi major axis: 6727 km
RCS: Unknown
Launch date: November 13, 2021
Source: United States (US)
Launch site: AIR FORCE EASTERN TEST RANGE (AFETR)
aabbcc
Your satellite tracking list
Your tracking list is empty




NASA's NSSDC Master Catalog

Two Line Element Set (TLE):
1 49445U 21104AP  21335.91667824  .00018220  00000-0  13363-3 0  9993
2 49445  53.2185  42.0101 0001518  29.9210  61.1579 15.73257672  3577
Source of the keplerian elements: AFSPC